Location: *
(43.9900°N, 3.4811°E)
Time: 14:42:16
(UTC+00:00)

USA 267 - Pass Details

Date: 25 August 2019
Orbit: 1101 x 1106 km, 123.0° (Epoch: 10 September)

Event Time Altitude Azimuth Distance (km) Brightness Sun altitude
Rises 19:28:31 0° 49° (NE) 3,924 5.9 -9.9°
Reaches altitude 10° 19:31:01 10° 47° (NE) 2,964 5.3 -10.3°
Maximum altitude 19:37:31 72° 325° (NW) 1,156 3.6 -11.3°
Drops below altitude 10° 19:44:00 10° 243° (WSW) 2,955 6.0 -12.4°
Sets 19:46:29 0° 241° (WSW) 3,911 6.6 -12.8°
